CST,Max TemperatureF,Mean TemperatureF,Min TemperatureF,Max Dew PointF,MeanDew PointF,Min DewpointF,Max Humidity, Mean Humidity, Min Humidity, Max Sea Level PressureIn, Mean Sea Level PressureIn, Min Sea Level PressureIn, Max VisibilityMiles, Mean VisibilityMiles, Min VisibilityMiles, Max Wind SpeedMPH, Mean Wind SpeedMPH, Max Gust SpeedMPH,PrecipitationIn, CloudCover, Events, WindDirDegrees
2012-11-1,84,64,45,60,53,46,100,81,33,30.09,30.02,29.97,10,7,0,6,0,,0.00,2,Fog,242
2012-11-2,85,68,52,67,60,52,100,80,41,30.06,30.01,29.97,10,9,0,14,2,21,0.00,0,Fog,238
2012-11-3,86,70,55,68,63,55,100,81,42,30.13,30.06,30.01,10,7,0,9,3,,0.00,3,Fog,234
2012-11-4,79,68,58,63,59,52,99,83,54,30.14,30.09,30.04,10,10,1,14,3,21,0.00,4,Thunderstorm,52
2012-11-5,73,60,46,60,54,46,99,78,55,30.09,30.02,29.94,10,9,4,12,3,,0.00,3,,323
2012-11-6,66,54,42,49,45,42,100,79,43,30.14,30.07,29.99,10,10,7,13,6,17,0.00,2,,328
2012-11-7,72,55,38,48,39,32,100,69,23,30.16,30.12,30.06,10,10,7,15,3,21,0.00,0,,331
2012-11-8,71,53,35,44,40,36,99,69,31,30.27,30.19,30.14,10,10,7,12,2,,0.00,0,,141
2012-11-9,78,58,39,55,47,39,100,70,32,30.21,30.15,30.09,10,10,7,14,4,16,0.00,0,,156
2012-11-10,80,65,50,59,56,51,100,72,45,30.18,30.10,30.02,10,10,5,18,8,24,0.00,1,,156
2012-11-11,71,63,55,67,62,52,98,88,74,30.16,30.03,29.97,10,9,2,17,11,31,0.29,7,Rain-Thunderstorm,154
2012-11-12,61,48,35,53,41,32,97,69,36,30.48,30.37,30.19,10,10,7,16,8,22,0.01,3,Rain,360
2012-11-13,57,44,30,37,32,28,100,68,33,30.53,30.44,30.36,10,10,7,10,2,17,0.00,0,,39
2012-11-14,61,47,33,36,33,30,99,65,32,30.42,30.36,30.30,10,10,5,10,3,,0.00,1,,7
2012-11-15,61,44,28,38,33,28,100,70,32,30.37,30.31,30.26,10,10,4,8,2,,0.00,0,,11
2012-11-16,63,47,31,40,36,31,100,75,36,30.39,30.34,30.30,10,10,5,10,3,,0.00,0,,22
2012-11-17,70,50,30,40,35,30,100,75,26,30.42,30.36,30.30,10,10,5,7,1,,0.00,0,,44
2012-11-18,71,50,30,41,36,31,100,72,27,30.37,30.31,30.26,10,9,3,6,1,,0.00,0,,89
2012-11-19,73,54,34,46,40,34,99,72,28,30.31,30.25,30.18,10,10,7,6,0,,0.00,1,,103
2012-11-20,76,58,41,55,49,40,99,75,41,30.25,30.18,30.13,10,10,7,7,1,,0.00,3,,340
2012-11-21,76,58,41,54,45,39,100,74,28,30.28,30.21,30.18,10,8,0,8,1,,0.00,0,Fog,10
2012-11-22,77,56,34,49,43,34,100,71,32,30.25,30.18,30.12,10,10,7,8,1,,0.00,0,,185
2012-11-23,60,51,42,59,49,36,100,91,74,30.35,30.26,30.18,10,8,2,13,2,17,0.10,4,Rain,346
2012-11-24,57,43,29,35,30,27,99,66,33,30.42,30.31,30.19,10,10,10,14,5,18,0.00,0,,6
2012-11-25,70,48,26,50,36,26,100,70,30,30.19,30.10,30.01,10,10,10,9,2,,0.00,0,,165
2012-11-26,78,64,50,66,59,49,100,86,58,30.06,30.01,29.95,10,10,2,12,4,18,0.03,5,Rain-Thunderstorm,175
2012-11-27,64,51,36,65,45,36,100,80,52,30.37,30.26,30.05,10,10,5,18,9,25,0.01,4,Rain,8
2012-11-28,64,46,28,38,33,29,100,75,29,30.50,30.40,30.34,10,9,4,6,1,,0.00,0,,74
2012-11-29,67,47,27,39,32,27,100,71,26,30.38,30.29,30.21,10,10,0,8,1,,0.00,0,Fog,131
2012-11-30,75,54,33,56,47,32,97,77,49,30.26,30.20,30.14,10,10,5,7,2,,0.00,4,,153